EN

Hourly Weather Gogolevka

Today, 16 May, Sunday

Time Temperature Precipitation Wind Pressure Humidity
00:00 +20°C° 0 mm 3 mps 743 mmHg 49%
01:00 +20°C° 0 mm 2 mps 743 mmHg 52%
02:00 +19°C° 0 mm 2 mps 743 mmHg 52%
03:00 +20°C° 0 mm 1 mps 743 mmHg 53%
04:00 +20°C° 0 mm 1 mps 743 mmHg 55%
05:00 +21°C° 0 mm 1 mps 743 mmHg 51%
06:00 +23°C° 0 mm 1 mps 744 mmHg 48%
07:00 +24°C° 0 mm 1 mps 744 mmHg 45%
08:00 +26°C° 0 mm 1 mps 744 mmHg 40%
09:00 +27°C° 0 mm 1 mps 744 mmHg 35%
10:00 +29°C° 0 mm 1 mps 744 mmHg 30%
11:00 +30°C° 0 mm 1 mps 744 mmHg 27%
12:00 +31°C° 0 mm 2 mps 743 mmHg 23%
13:00 +32°C° 0 mm 2 mps 743 mmHg 20%
14:00 +33°C° 0 mm 3 mps 743 mmHg 19%
15:00 +33°C° 0 mm 3 mps 743 mmHg 19%
16:00 +34°C° 0 mm 3 mps 743 mmHg 18%
17:00 +31°C° 0 mm 3 mps 743 mmHg 23%
18:00 +29°C° 0 mm 3 mps 743 mmHg 28%
19:00 +28°C° 0 mm 3 mps 742 mmHg 33%
20:00 +26°C° 0 mm 3 mps 742 mmHg 35%
21:00 +25°C° 0 mm 3 mps 742 mmHg 38%
22:00 +24°C° 0 mm 2 mps 742 mmHg 40%
23:00 +23°C° 0 mm 2 mps 742 mmHg 44%

Tomorrow, 17 May, Monday

Time Temperature Precipitation Wind Pressure Humidity
00:00 +21°C° 0 mm 2 mps 742 mmHg 47%
01:00 +21°C° 0 mm 1 mps 742 mmHg 51%
02:00 +21°C° 0 mm 1 mps 742 mmHg 52%
03:00 +21°C° 0 mm 1 mps 743 mmHg 53%
04:00 +20°C° 0 mm 1 mps 743 mmHg 54%
05:00 +22°C° 0 mm 1 mps 743 mmHg 49%
06:00 +24°C° 0 mm 1 mps 743 mmHg 45%
07:00 +23°C° 0 mm 0 mps 743 mmHg 40%
08:00 +27°C° 0 mm 1 mps 743 mmHg 35%
09:00 +29°C° 0 mm 1 mps 743 mmHg 30%
10:00 +30°C° 0 mm 1 mps 743 mmHg 25%
11:00 +31°C° 0 mm 1 mps 743 mmHg 23%
12:00 +32°C° 0 mm 2 mps 743 mmHg 21%
13:00 +34°C° 0 mm 2 mps 742 mmHg 18%
14:00 +34°C° 0 mm 2 mps 742 mmHg 18%
15:00 +34°C° 0 mm 3 mps 742 mmHg 18%
16:00 +34°C° 0 mm 3 mps 741 mmHg 18%
17:00 +30°C° 0 mm 3 mps 742 mmHg 26%
18:00 +28°C° 0 mm 3 mps 742 mmHg 34%
19:00 +25°C° 0 mm 4 mps 742 mmHg 42%
20:00 +24°C° 0.2 mm 3 mps 742 mmHg 44%
21:00 +22°C° 0.2 mm 3 mps 742 mmHg 46%
22:00 +21°C° 0.2 mm 2 mps 742 mmHg 48%
23:00 +21°C° 0 mm 2 mps 741 mmHg 48%

Day after tomorrow, 18 May, Tuesday

Time Temperature Precipitation Wind Pressure Humidity
00:00 +21°C° 0 mm 2 mps 741 mmHg 48%
01:00 +20°C° 0 mm 2 mps 741 mmHg 47%
02:00 +20°C° 0 mm 2 mps 741 mmHg 49%
03:00 +20°C° 0 mm 1 mps 740 mmHg 51%
04:00 +20°C° 0 mm 1 mps 740 mmHg 52%
05:00 +20°C° 0 mm 2 mps 740 mmHg 49%
06:00 +23°C° 0 mm 2 mps 740 mmHg 45%
07:00 +25°C° 0 mm 2 mps 740 mmHg 41%
08:00 +27°C° 0 mm 2 mps 740 mmHg 36%
09:00 +29°C° 0 mm 3 mps 740 mmHg 32%
10:00 +30°C° 0 mm 3 mps 740 mmHg 27%
11:00 +31°C° 0 mm 3 mps 740 mmHg 24%
12:00 +33°C° 0 mm 3 mps 739 mmHg 22%
13:00 +33°C° 0 mm 3 mps 739 mmHg 19%
14:00 +33°C° 0 mm 3 mps 739 mmHg 19%
15:00 +33°C° 0 mm 4 mps 738 mmHg 19%
16:00 +33°C° 0 mm 4 mps 738 mmHg 20%
17:00 +30°C° 0 mm 5 mps 738 mmHg 27%
18:00 +27°C° 0 mm 5 mps 738 mmHg 35%
19:00 +24°C° 0 mm 6 mps 738 mmHg 43%
20:00 +23°C° 0 mm 5 mps 738 mmHg 44%
21:00 +22°C° 0 mm 4 mps 738 mmHg 45%
22:00 +21°C° 0 mm 3 mps 738 mmHg 46%
23:00 +21°C° 0 mm 4 mps 738 mmHg 48%

19 May, Wednesday

Time Temperature Precipitation Wind Pressure Humidity
00:00 +20°C° 0 mm 6 mps 738 mmHg 51%
01:00 +20°C° 0 mm 7 mps 738 mmHg 53%
02:00 +18°C° 0 mm 7 mps 739 mmHg 58%
03:00 +17°C° 0 mm 7 mps 739 mmHg 63%
04:00 +16°C° 0 mm 7 mps 740 mmHg 68%
05:00 +15°C° 0 mm 7 mps 740 mmHg 68%
06:00 +15°C° 0 mm 8 mps 741 mmHg 67%
07:00 +15°C° 0 mm 8 mps 741 mmHg 67%
08:00 +16°C° 0 mm 8 mps 741 mmHg 60%
09:00 +18°C° 0 mm 8 mps 741 mmHg 53%
10:00 +20°C° 0 mm 8 mps 741 mmHg 47%
11:00 +21°C° 0 mm 8 mps 741 mmHg 43%
12:00 +22°C° 0 mm 7 mps 741 mmHg 39%
13:00 +23°C° 0 mm 7 mps 741 mmHg 34%
14:00 +23°C° 0 mm 7 mps 741 mmHg 33%
15:00 +24°C° 0 mm 7 mps 741 mmHg 31%
16:00 +24°C° 0 mm 6 mps 741 mmHg 29%
17:00 +23°C° 0 mm 6 mps 741 mmHg 32%
18:00 +22°C° 0 mm 5 mps 741 mmHg 35%
19:00 +21°C° 0 mm 4 mps 741 mmHg 37%
20:00 +20°C° 0 mm 4 mps 741 mmHg 39%
21:00 +19°C° 0 mm 4 mps 742 mmHg 41%
22:00 +18°C° 0 mm 4 mps 742 mmHg 43%
23:00 +17°C° 0 mm 4 mps 742 mmHg 44%

20 May, Thursday

Time Temperature Precipitation Wind Pressure Humidity
00:00 +15°C° 0 mm 4 mps 742 mmHg 45%
01:00 +14°C° 0 mm 3 mps 742 mmHg 47%
02:00 +13°C° 0 mm 3 mps 743 mmHg 49%
03:00 +12°C° 0 mm 3 mps 743 mmHg 52%
04:00 +13°C° 0 mm 2 mps 743 mmHg 55%
05:00 +13°C° 0 mm 3 mps 743 mmHg 52%
06:00 +16°C° 0 mm 3 mps 743 mmHg 49%
07:00 +17°C° 0 mm 3 mps 744 mmHg 46%
08:00 +19°C° 0 mm 4 mps 744 mmHg 41%
09:00 +20°C° 0 mm 4 mps 744 mmHg 36%
10:00 +22°C° 0 mm 5 mps 744 mmHg 31%
11:00 +23°C° 0 mm 4 mps 744 mmHg 29%
12:00 +25°C° 0 mm 4 mps 743 mmHg 27%
13:00 +25°C° 0 mm 4 mps 743 mmHg 25%
14:00 +26°C° 0 mm 4 mps 743 mmHg 24%
15:00 +26°C° 0 mm 4 mps 743 mmHg 23%
16:00 +26°C° 0 mm 3 mps 743 mmHg 23%
17:00 +25°C° 0 mm 3 mps 743 mmHg 26%
18:00 +24°C° 0 mm 3 mps 742 mmHg 30%
19:00 +23°C° 0 mm 2 mps 742 mmHg 33%
20:00 +21°C° 0 mm 2 mps 742 mmHg 35%
21:00 +19°C° 0 mm 2 mps 742 mmHg 37%
22:00 +18°C° 0 mm 2 mps 742 mmHg 38%
23:00 +17°C° 0 mm 2 mps 742 mmHg 40%

21 May, Friday

Time Temperature Precipitation Wind Pressure Humidity
00:00 +16°C° 0 mm 2 mps 743 mmHg 42%
01:00 +16°C° 0 mm 2 mps 743 mmHg 44%
02:00 +15°C° 0 mm 1 mps 743 mmHg 45%
03:00 +15°C° 0 mm 1 mps 743 mmHg 47%
04:00 +14°C° 0 mm 1 mps 743 mmHg 49%
05:00 +16°C° 0 mm 1 mps 743 mmHg 46%
06:00 +18°C° 0 mm 1 mps 744 mmHg 42%
07:00 +20°C° 0 mm 1 mps 744 mmHg 39%
08:00 +22°C° 0 mm 1 mps 744 mmHg 35%
09:00 +23°C° 0 mm 1 mps 744 mmHg 31%
10:00 +25°C° 0 mm 1 mps 744 mmHg 26%
11:00 +26°C° 0 mm 2 mps 744 mmHg 25%
12:00 +26°C° 0 mm 2 mps 744 mmHg 23%
13:00 +27°C° 0 mm 2 mps 744 mmHg 21%
14:00 +28°C° 0 mm 2 mps 744 mmHg 21%
15:00 +28°C° 0 mm 2 mps 744 mmHg 20%
16:00 +28°C° 0 mm 2 mps 743 mmHg 19%
17:00 +27°C° 0 mm 2 mps 743 mmHg 23%
18:00 +27°C° 0 mm 2 mps 743 mmHg 26%
19:00 +26°C° 0 mm 2 mps 743 mmHg 29%
20:00 +24°C° 0 mm 2 mps 744 mmHg 34%
21:00 +21°C° 0 mm 2 mps 744 mmHg 39%
22:00 +19°C° 0 mm 3 mps 744 mmHg 44%
23:00 +19°C° 0 mm 3 mps 744 mmHg 46%
Show more